Angola, NY (14006)

8:40 PM EDT on July 25, 2016 (GMT -0400)
Beechwood Road | | Change Station
Active Advisory: Beach Hazard Statement Active Notice: Public Information Statement

Elev 600 ft 42.69 °N, 79.05 °W | Updated 11 minutes ago

Clear
Clear
78.4 °F
Feels Like 82 °F
N
5.8
Wind Variable Wind from WSW

Today
High -- | Low -- °F
--% Chance of Precip.
Yesterday
High -- | Low -- °F
Precip. -- in
Pressure 29.89 in
Visibility 10.0 miles
Clouds Clear
Heat Index 82 °F
Dew Point 77 °F
Humidity 95%
Rainfall 0.00 in
Snow Depth Not available.
6:01 AM 8:43 PM
Waning Gibbous, 61% visible
METAR KDKK 252353Z AUTO 24006KT 10SM CLR 26/22 A2990 RMK AO2 SLP120 T02560222 10272 20228 53007 $
Pressure 29.89 in
Visibility 10.0 miles
Clouds Clear
Heat Index 82 °F
Dew Point 77 °F
Humidity 95%
Rainfall 0.00 in
Snow Depth Not available.
6:01 AM 8:43 PM
Waning Gibbous, 61% visible
METAR KDKK 252353Z AUTO 24006KT 10SM CLR 26/22 A2990 RMK AO2 SLP120 T02560222 10272 20228 53007 $
Record highs are possible for parts of the Northeast Monday and Tuesday, as parts of the central U.S. take a little breather from the worst of summer's dog day heat.

Expansive high pressure in the upper atmosphere will focus on parts of the East and West this week, sending heat indices well into the triple digits from the Mid-Atlantic states into the South.

10-Day Weather Forecast

Almanac

Astronomy

Jul. 25, 2016 Rise Set
Actual Time
Civil Twilight
Nautical Twilight
Astronomical Twilight
Moon
Length of Visible Light
Length of Day
Tomorrow will be .
, % of the Moon is Illuminated

Today's Extremes

State Highs State Lows

Community

WunderPhotos

Upload Photos

1,927,479 photos uploaded!

WunderBlog® & News

Nearby

Air Quality

  Air Quality AQ Index Pollutant
Not available.

Snow Depth

Station Depth Elevation

Earthquake Activity

City Distance Mag. Time & Date
Minimum magnitude displayed is 2.5.

Coastal Water Temperatures

Place Temperature

Stations

Nearby Weather Stations

Station Location Temp. Windchill Dew Point Humidity Wind Precip. Elev Updated Type
                   

Watches & Warnings

Beach Hazard Statement
Issued: 7:11 PM EDT Jul. 25, 2016 – National Weather Service

... Beach hazards statement now in effect until 11 PM EDT this
evening...

* locations... beaches of northern Erie and southern Erie
counties.

* Timing... through late this evening.

* Impacts... strong currents and dangerous swimming conditions.

Precautionary/preparedness actions...

A beach hazards statement is issued when there is a high swim
risk. This means life threatening waves and currents are
expected. Stay out of the water and stay away from dangerous
areas like piers and breakwalls.



Hitchcock